Weather Roundup
Issued by NWS

Home | Current Version | Previous Version | Text Only | Print | Product List | Glossary On
Versions: 1 2 3 4 5 6 7 8 9 10 11 12 13 14 15 16 17 18 19 20 21 22 23 24 25 26 27 28 29 30 31 32 33 34 35 36 37 38 39 40 41 42 43 44 45 46 47 48 49 50
000
NZUS93 KARX 020410
HRRWXR

CURRENT HOURLY OBSERVATIONS ACROSS
MUCH OF THE UPPER MISSISSIPPI VALLEY
NATIONAL WEATHER SERVICE LA CROSSE WI
1100 PM CDT TUE SEP 01 2015


...SOUTHEAST MINNESOTA...


CITY           SKY/WX    TMP DP  RH WIND       PRES   REMARKS
ROCHESTER      PTCLDY    72  70  93 S9        29.97S
ROCHESTER/MAYO FAIR      76  72  86 S8        29.96S
WINONA         MOCLDY    79  72  78 CALM      29.94S
AUSTIN         CLEAR     75  72  88 S5        29.96S
ALBERT LEA     PTCLDY    75  72  88 S5        29.96R
DODGE CENTER   PTCLDY    75  70  83 S9        29.96S
PRESTON        PTCLDY    73  71  91 S6        29.99S
OWATONNA       CLEAR     75  72  88 S5        29.95R
FARIBAULT      CLEAR     70  68  94 CALM      29.95S FOG
$$

...ELSEWHERE IN MINNESOTA...


CITY           SKY/WX    TMP DP  RH WIND       PRES   REMARKS
MINNEAPOLIS    MOCLDY    80  72  76 S6        29.93R
INTNL FALLS    CLEAR     55  53  93 CALM      29.93R
DULUTH         PTCLDY    68  66  93 CALM      29.96R
RED WING       MOCLDY    73  72  94 CALM      29.92F FOG
REDWOOD FALLS  LGT RAIN  76  71  85 SE7       29.90R
MANKATO        PTCLDY    73  70  88 SE6       29.93S
WORTHINGTON    CLOUDY    73  70  88 S8        29.90S
FAIRMONT       MOCLDY    73  66  78 SE9       29.91F
$$

...SOUTHWEST WISCONSIN...


CITY           SKY/WX    TMP DP  RH WIND       PRES   REMARKS
LA CROSSE      MOCLDY    78  74  87 SE5       29.95R
PRAIRIE DU CHI PTCLDY    77  71  82 CALM      29.99R
BOSCOBEL       MOCLDY    74  72  93 SW3       29.98R
LONE ROCK      PTCLDY    73  70  90 NE3       29.99R FOG
PLATTEVILLE    PTCLDY    73  71  93 S6        30.02R
FORT MC COY    PTCLDY    72  69  92 CALM      29.97S
CAMP DOUGLAS   MOCLDY    72  72 100 E3        29.97R
VIROQUA          N/A     74  74 100 SW6       30.00S
WIS DELLS      PTCLDY    75  71  87 SW5       29.99R
$$

...ELSEWHERE IN WISCONSIN...


CITY           SKY/WX    TMP DP  RH WIND       PRES   REMARKS
MILWAUKEE      MOCLDY    79  70  74 SW8       30.00S
MADISON        PTCLDY    76  71  85 CALM      29.99S
GREEN BAY      MOCLDY    74  70  87 S3        29.97R
EAU CLAIRE     MOCLDY    76  73  91 CALM      29.94S
BLACK RVR FLS  FAIR      71  71 100 CALM      29.96R FOG
MEDFORD        MOCLDY    69  69 100 CALM      29.99S FOG
WAUSAU         MOCLDY    74  71  91 CALM      29.97R
WIS RAPIDS     PTCLDY    73  70  90 SW3       29.99R
MARSHFIELD     MOCLDY    73  69  87 S3        29.98S
RICE LAKE      MOCLDY    73  71  94 CALM      29.96F FOG
$$

...NORTHEAST IOWA...


CITY           SKY/WX    TMP DP  RH WIND       PRES   REMARKS
DECORAH        PTCLDY    75  73  94 S7        29.99R
MASON CITY     PTCLDY    73  72  96 S7        29.97F
CHARLES CITY   PTCLDY    75  75 100 S7        29.99S
OELWEIN        PTCLDY    73  72  94 S7        30.01S
$$

...ELSEWHERE IN IOWA...


CITY           SKY/WX    TMP DP  RH WIND       PRES   REMARKS
DES MOINES     MOCLDY    75  67  76 S8        29.98R
IOWA CITY      PTCLDY    75  69  81 CALM      30.02S
FORT DODGE     PTCLDY    79  68  69 S9        29.96S
$$

...NORTHERN ILLINOIS...


CITY           SKY/WX    TMP DP  RH WIND       PRES   REMARKS
CHICAGO-OHARE  PTCLDY    79  72  79 SW12      30.03R
CHICAGO-MIDWAY PTCLDY    80  71  74 SW10      30.03S
MOLINE         PTCLDY    78  69  73 SW6       30.02R
ROCKFORD       MOCLDY    73  69  87 S6        30.04R
PEORIA         CLEAR     78  68  71 S5        30.06R
$$

NOTE: "FAIR" INDICATES FEW OR NO CLOUDS BELOW 12,000 FEET WITH NO
SIGNIFICANT WEATHER AND/OR OBSTRUCTIONS TO VISIBILITY. WIND
SPEEDS ARE IN MILES-PER-HOUR.



USA.gov is the U.S. government's official web portal to all federal, state and local government web resources and services.